{"data":{"norad_id":61636,"intl_designator":"2024-191R","name":"STARLINK-32405","alt_names":[],"object_type":"PAYLOAD","status":"ACTIVE","operator":null,"country":"US","launch_date":"2024-10-23","launch_site_code":"AFETR","launch_vehicle":null,"mission":null,"orbit_class":"UNKNOWN","rcs_meters":null,"size_class":null,"mass_kg":null,"dimensions":null,"purposes":["comms"],"wikipedia_slug":null,"has_3d_model":false,"image_url":null,"decayed_at":null,"tle_current":{"epoch":"2026-09-21T00:13:42.873600Z","epoch_age_seconds":148017,"freshness":"FRESH","line1":"1 61636U 24191R   26264.00952400 -.00000610  00000+0 -12636-4 0  9999","line2":"2 61636  43.0035 135.2786 0000788 344.3241  15.7586 15.27570922107364","mean_motion":15.27570922,"eccentricity":7.88e-5,"inclination_deg":43.0035,"raan_deg":135.2786,"arg_perigee_deg":344.3241,"mean_anomaly_deg":15.7586,"bstar":-1.2636e-5,"rev_number":10736,"period_min":94.267308919095,"perigee_km":482.53561536568,"apogee_km":483.61694257845,"semimajor_km":6861.2132789721,"source":"CELESTRAK","updated_at":"2026-09-22T09:00:49.397911Z"}}}